• In Kazakhstan
  • List of Countries
  • For 7 days
  • Water Temperature
  • Satellite Maps
  • Weather Map
  • News
  • Weather Widgets
  • user-avatar
    Login

    Hourly Weather Bolton

    Today, 21 January, Monday

    Time Temperature Precipitation Wind Pressure Humidity
    00:00 +4°C° 0 mm 1 mps 751 mmHg 94%
    01:00 +3°C° 0 mm 0 mps 751 mmHg 94%
    02:00 +3°C° 0 mm 0 mps 750 mmHg 93%
    03:00 +3°C° 0 mm 0 mps 750 mmHg 93%
    04:00 +2°C° 0 mm 0 mps 750 mmHg 94%
    05:00 +3°C° 0 mm 1 mps 750 mmHg 95%
    06:00 +3°C° 0 mm 1 mps 750 mmHg 94%
    07:00 +2°C° 0 mm 2 mps 750 mmHg 95%
    08:00 +2°C° 0 mm 2 mps 749 mmHg 95%
    09:00 +2°C° 0 mm 2 mps 749 mmHg 96%
    10:00 +2°C° 0 mm 3 mps 748 mmHg 93%
    11:00 +2°C° 0 mm 3 mps 748 mmHg 90%
    12:00 +3°C° 0 mm 4 mps 747 mmHg 89%
    13:00 +3°C° 0 mm 4 mps 746 mmHg 86%
    14:00 +3°C° 0 mm 4 mps 745 mmHg 83%
    15:00 +3°C° 0 mm 4 mps 744 mmHg 80%
    16:00 +2°C° 0 mm 5 mps 743 mmHg 81%
    17:00 +2°C° 0 mm 5 mps 742 mmHg 82%
    18:00 +2°C° 0 mm 5 mps 741 mmHg 83%
    19:00 +2°C° 0.5 mm 6 mps 739 mmHg 83%
    20:00 +2°C° 0.5 mm 7 mps 738 mmHg 84%
    21:00 +2°C° 0.5 mm 7 mps 736 mmHg 84%
    22:00 +2°C° 1.8 mm 7 mps 736 mmHg 84%
    23:00 +2°C° 1.8 mm 6 mps 735 mmHg 84%

    Tomorrow, 22 January, Tuesday

    Time Temperature Precipitation Wind Pressure Humidity
    00:00 +2°C° 1.8 mm 6 mps 734 mmHg 84%
    01:00 +2°C° 0.2 mm 5 mps 734 mmHg 80%
    02:00 +1°C° 0.2 mm 5 mps 734 mmHg 77%
    03:00 0°C° 0.2 mm 5 mps 734 mmHg 74%
    04:00 0°C° 0.3 mm 4 mps 733 mmHg 76%
    05:00 0°C° 0.3 mm 4 mps 733 mmHg 79%
    06:00 -1°C° 0.3 mm 4 mps 733 mmHg 81%
    07:00 -1°C° 0.5 mm 4 mps 733 mmHg 81%
    08:00 -1°C° 0.5 mm 4 mps 733 mmHg 82%
    09:00 0°C° 0.5 mm 3 mps 733 mmHg 82%
    10:00 +1°C° 0.4 mm 3 mps 733 mmHg 81%
    11:00 +1°C° 0.4 mm 3 mps 733 mmHg 80%
    12:00 +1°C° 0.4 mm 3 mps 732 mmHg 80%
    13:00 +1°C° 0.6 mm 3 mps 732 mmHg 80%
    14:00 +1°C° 0.6 mm 3 mps 732 mmHg 80%
    15:00 +1°C° 0.6 mm 3 mps 732 mmHg 81%
    16:00 0°C° 0.3 mm 3 mps 732 mmHg 83%
    17:00 -1°C° 0.3 mm 3 mps 732 mmHg 84%
    18:00 -1°C° 0.3 mm 2 mps 732 mmHg 86%
    19:00 -1°C° 0.1 mm 2 mps 732 mmHg 86%
    20:00 0°C° 0.1 mm 1 mps 732 mmHg 86%
    21:00 0°C° 0.1 mm 1 mps 732 mmHg 86%
    22:00 0°C° 0 mm 1 mps 732 mmHg 86%
    23:00 0°C° 0 mm 1 mps 732 mmHg 85%

    Day after tomorrow, 23 January, Wednesday

    Time Temperature Precipitation Wind Pressure Humidity
    00:00 -1°C° 0 mm 1 mps 732 mmHg 84%
    01:00 -1°C° 0 mm 1 mps 733 mmHg 84%
    02:00 -1°C° 0 mm 1 mps 733 mmHg 83%
    03:00 -1°C° 0 mm 1 mps 733 mmHg 83%
    04:00 -1°C° 0 mm 1 mps 734 mmHg 82%
    05:00 -1°C° 0 mm 1 mps 734 mmHg 81%
    06:00 -1°C° 0 mm 1 mps 734 mmHg 80%
    07:00 -1°C° 0 mm 1 mps 735 mmHg 80%
    08:00 -1°C° 0 mm 1 mps 736 mmHg 79%
    09:00 -1°C° 0 mm 1 mps 736 mmHg 78%
    10:00 0°C° 0 mm 1 mps 737 mmHg 77%
    11:00 +1°C° 0 mm 1 mps 738 mmHg 75%
    12:00 +2°C° 0 mm 1 mps 738 mmHg 73%
    13:00 +2°C° 0 mm 1 mps 739 mmHg 74%
    14:00 +2°C° 0 mm 1 mps 739 mmHg 74%
    15:00 +2°C° 0 mm 1 mps 739 mmHg 75%
    16:00 +1°C° 0 mm 1 mps 740 mmHg 74%
    17:00 -1°C° 0 mm 0 mps 740 mmHg 74%
    18:00 -1°C° 0 mm 0 mps 741 mmHg 74%
    19:00 -1°C° 0 mm 0 mps 741 mmHg 74%
    20:00 0°C° 0 mm 1 mps 742 mmHg 74%
    21:00 0°C° 0 mm 1 mps 742 mmHg 73%
    22:00 0°C° 0 mm 1 mps 743 mmHg 76%
    23:00 0°C° 0 mm 1 mps 743 mmHg 79%

    24 January, Thursday

    Time Temperature Precipitation Wind Pressure Humidity
    00:00 -2°C° 0 mm 2 mps 743 mmHg 82%
    01:00 -2°C° 0 mm 2 mps 743 mmHg 83%
    02:00 -1°C° 0 mm 2 mps 743 mmHg 85%
    03:00 -1°C° 0 mm 2 mps 743 mmHg 87%
    04:00 -1°C° 0.1 mm 2 mps 743 mmHg 87%
    05:00 -1°C° 0.1 mm 2 mps 743 mmHg 88%
    06:00 -1°C° 0.1 mm 2 mps 742 mmHg 89%
    07:00 -1°C° 0.1 mm 3 mps 742 mmHg 89%
    08:00 0°C° 0.1 mm 3 mps 742 mmHg 90%
    09:00 0°C° 0.1 mm 3 mps 742 mmHg 91%
    10:00 0°C° 0.5 mm 3 mps 742 mmHg 93%
    11:00 0°C° 0.5 mm 3 mps 742 mmHg 94%
    12:00 +1°C° 0.5 mm 3 mps 742 mmHg 96%
    13:00 +1°C° 0.3 mm 3 mps 742 mmHg 97%
    14:00 +2°C° 0.3 mm 3 mps 742 mmHg 98%
    15:00 +3°C° 0.3 mm 2 mps 741 mmHg 98%
    16:00 +3°C° 0.1 mm 3 mps 742 mmHg 98%
    17:00 +4°C° 0.1 mm 4 mps 742 mmHg 98%
    18:00 +5°C° 0.1 mm 5 mps 742 mmHg 98%
    19:00 +5°C° 0.1 mm 5 mps 742 mmHg 98%
    20:00 +6°C° 0.1 mm 5 mps 743 mmHg 97%
    21:00 +6°C° 0.1 mm 5 mps 743 mmHg 97%
    22:00 +6°C° 0 mm 5 mps 743 mmHg 97%
    23:00 +6°C° 0 mm 5 mps 743 mmHg 97%

    25 January, Friday

    Time Temperature Precipitation Wind Pressure Humidity
    00:00 +6°C° 0 mm 5 mps 743 mmHg 97%
    01:00 +6°C° 0.1 mm 5 mps 743 mmHg 97%
    02:00 +6°C° 0.1 mm 4 mps 743 mmHg 97%
    03:00 +6°C° 0.1 mm 4 mps 743 mmHg 97%
    04:00 +6°C° 0.1 mm 5 mps 743 mmHg 96%
    05:00 +6°C° 0.1 mm 5 mps 742 mmHg 95%
    06:00 +6°C° 0.1 mm 5 mps 742 mmHg 94%
    07:00 +6°C° 0.1 mm 5 mps 742 mmHg 91%
    08:00 +6°C° 0.1 mm 5 mps 742 mmHg 89%
    09:00 +5°C° 0.1 mm 5 mps 742 mmHg 87%
    10:00 +6°C° 0.2 mm 5 mps 741 mmHg 87%
    11:00 +6°C° 0.2 mm 5 mps 741 mmHg 87%
    12:00 +6°C° 0.2 mm 5 mps 740 mmHg 88%
    13:00 +5°C° 0.4 mm 6 mps 740 mmHg 88%
    14:00 +6°C° 0.4 mm 7 mps 740 mmHg 89%
    15:00 +7°C° 0.4 mm 8 mps 740 mmHg 89%
    16:00 +6°C° 0.1 mm 7 mps 739 mmHg 89%
    17:00 +7°C° 0.1 mm 6 mps 739 mmHg 89%
    18:00 +6°C° 0.1 mm 5 mps 739 mmHg 90%
    19:00 +6°C° 0 mm 5 mps 739 mmHg 87%
    20:00 +5°C° 0 mm 5 mps 739 mmHg 85%
    21:00 +3°C° 0 mm 5 mps 738 mmHg 83%
    22:00 +3°C° 0 mm 5 mps 738 mmHg 83%
    23:00 +4°C° 0 mm 4 mps 738 mmHg 84%

    26 January, Saturday

    Time Temperature Precipitation Wind Pressure Humidity
    00:00 +4°C° 0 mm 4 mps 738 mmHg 84%
    01:00 +3°C° 0.1 mm 4 mps 737 mmHg 84%
    02:00 +3°C° 0.1 mm 3 mps 737 mmHg 85%
    03:00 +3°C° 0.1 mm 3 mps 736 mmHg 85%
    04:00 +3°C° 0.7 mm 3 mps 736 mmHg 84%
    05:00 +3°C° 0.7 mm 3 mps 735 mmHg 83%
    06:00 +3°C° 0.7 mm 3 mps 735 mmHg 81%
    07:00 +3°C° 0.1 mm 4 mps 735 mmHg 80%
    08:00 +3°C° 0.1 mm 4 mps 736 mmHg 78%
    09:00 +3°C° 0.1 mm 4 mps 736 mmHg 77%
    10:00 +2°C° 0.2 mm 5 mps 736 mmHg 73%
    11:00 +2°C° 0.2 mm 6 mps 736 mmHg 70%
    12:00 +3°C° 0.2 mm 7 mps 736 mmHg 66%
    13:00 +2°C° 0.2 mm 7 mps 736 mmHg 66%
    14:00 +2°C° 0.2 mm 7 mps 736 mmHg 66%
    15:00 +2°C° 0.2 mm 7 mps 736 mmHg 66%
    16:00 +2°C° 0 mm 6 mps 736 mmHg 68%
    17:00 +1°C° 0 mm 6 mps 736 mmHg 70%
    18:00 +1°C° 0 mm 5 mps 736 mmHg 72%
    19:00 +1°C° 0.1 mm 5 mps 737 mmHg 74%
    20:00 +1°C° 0.1 mm 5 mps 737 mmHg 75%
    21:00 +1°C° 0.1 mm 5 mps 737 mmHg 76%
    22:00 +1°C° 0.3 mm 5 mps 737 mmHg 76%
    23:00 +1°C° 0.3 mm 5 mps 737 mmHg 76%
    Show more